[[{"header":{"parameterUnit":"m.s-1","parameterCategory":2,"la1":30.2992,"la2":30.254,"lo1":-89.0895,"lo2":-89.0443,"dy":0.0025,"dx":0.0025,"nx":19,"ny":19,"refTime":"2026-05-20T21:00:00:Z","depth":"0","parameterNumber":2,"parameterNumberName":"U-component_of_CURRENTS"},"data":[0,0,0,0.3191,0.3194,0.3341,0.3341,0.3515,0.3517,0,0,0,0,0,0,0,0,0,0,0,0.3123,0.3123,0.3191,0.3195,0.3341,0.3342,0.3515,0.3517,0,0,0,0,0,0,0,0,0,0,0,0.3122,0.3123,0.3124,0.3195,0.3341,0.3342,0.3515,0.3406,0,0,0,0,0,0,0,0,0,0,0.3264,0.3198,0.3123,0.3124,0.3196,0.3341,0.3342,0.3401,0.3413,0.3447,0,0.3465,0,0.3507,0.3529,0.3529,0,0,0,0.3188,0.3188,0.324,0.3124,0.3197,0.3341,0.3273,0.3407,0.3421,0.3463,0.3468,0.3475,0.351,0.353,0.3531,0.3729,0.3729,0,0,0.318,0.3141,0.3231,0.3249,0.3231,0.3268,0.3278,0.3416,0.342,0.3469,0.348,0.3513,0.3531,0.3533,0.3728,0.3729,0,0,0,0.3161,0.3134,0.3183,0.324,0.3275,0.3273,0.3283,0.3413,0.3433,0.3482,0.3515,0.3532,0.3534,0.3727,0.3728,0.3786,0,0,0,0.3156,0.3125,0.3179,0.3157,0.3273,0.3348,0.3277,0.3423,0.3441,0.3514,0.3532,0.3536,0.3726,0.3728,0.3782,0.3897,0,0,0,0.3117,0.3121,0.3139,0.3154,0.3225,0.3346,0.3374,0.3427,0.3461,0.353,0.3537,0.3725,0.3727,0.3779,0.3889,0.3999,0,0,0,0.3071,0.3098,0.3137,0.3186,0.3223,0.3343,0.3373,0.3452,0.3507,0.3533,0.3726,0.3728,0.3778,0.3884,0.3993,0.3988,0.4015,0,0,0.3082,0.3098,0.3132,0.3172,0.328,0.3323,0.3457,0.3529,0.3554,0.3676,0.3681,0.3783,0.3889,0.3998,0.4101,0.4125,0,0,0,0.3122,0.3143,0.3182,0.3256,0.3347,0.3479,0.3539,0.3598,0.371,0.36,0.3807,0.3875,0.394,0.3925,0.3944,0.3805,0.3737,0.3737,0.3737,0.3069,0.3146,0.3227,0.3339,0.3427,0.3583,0.3706,0.3805,0.3771,0.3833,0.3934,0.409,0.407,0.4085,0.394,0.3903,0.3903,0.3903,0.3903,0.3114,0.3191,0.3286,0.3394,0.3545,0.3671,0.3894,0.3927,0.4134,0.4045,0.4102,0.4004,0.411,0.3948,0.3908,0.3907,0.3906,0.3906,0.3906,0.3118,0.3177,0.3236,0.3407,0.3581,0.3754,0.3986,0.4134,0.4235,0.4332,0.4306,0.4304,0.4156,0.4324,0.4325,0.4326,0.4327,0.4327,0.4328,0.3121,0.319,0.3284,0.3435,0.3548,0.375,0.4061,0.4222,0.4415,0.4459,0.4457,0.4206,0.422,0.4197,0.4343,0.434,0.4338,0.4337,0.4336,0.3217,0.3206,0.3338,0.343,0.3631,0.3716,0.4018,0.431,0.4511,0.4599,0.4431,0.4522,0.4531,0.4513,0.4498,0.4715,0.4715,0.4715,0.4715,0.3268,0.3274,0.3401,0.3495,0.3616,0.3712,0.3856,0.4128,0.4397,0.4461,0.4508,0.4338,0.4329,0.4315,0.4301,0.4278,0.4434,0.4433,0.4433,0.3375,0.338,0.3451,0.3472,0.3573,0.3633,0.365,0.3776,0.4169,0.4405,0.4324,0.4336,0.4062,0.4059,0.4008,0.4,0.3952,0,0]},{"header":{"parameterUnit":"m.s-1","parameterCategory":2,"la1":30.2992,"la2":30.254,"lo1":-89.0895,"lo2":-89.0443,"dy":0.0025,"dx":0.0025,"nx":19,"ny":19,"refTime":"2026-05-20T21:00:00:Z","depth":"0","parameterNumber":3,"parameterNumberName":"V-component_of_CURRENTS"},"data":[0,0,0,0.0135,0.0135,0.0144,0.0144,0.0127,0.0126,0,0,0,0,0,0,0,0,0,0,0,0.0125,0.0125,0.0135,0.0135,0.0144,0.0144,0.0127,0.0126,0,0,0,0,0,0,0,0,0,0,0,0.0125,0.0125,0.0125,0.0135,0.0144,0.0144,0.0127,0.0125,0,0,0,0,0,0,0,0,0,0,0.0119,0.0124,0.0125,0.0125,0.0136,0.0144,0.0144,0.0125,0.0125,0.0118,0,0.0121,0,0.013,0.0126,0.0125,0,0,0,0.0126,0.0124,0.0123,0.0125,0.0136,0.0144,0.0137,0.0125,0.0125,0.0118,0.0121,0.0121,0.013,0.0125,0.0125,0.0204,0.0205,0,0,0.0126,0.0129,0.0123,0.0123,0.014,0.0137,0.0138,0.0125,0.0128,0.0121,0.0121,0.013,0.0125,0.0125,0.0203,0.0204,0,0,0,0.0131,0.0128,0.0128,0.0123,0.0131,0.0138,0.0138,0.0128,0.0127,0.0121,0.0129,0.0125,0.0125,0.0202,0.0204,0.0365,0,0,0,0.013,0.0132,0.0128,0.013,0.0131,0.0136,0.0141,0.0128,0.0127,0.0129,0.0125,0.0125,0.0201,0.0203,0.0358,0.0526,0,0,0,0.0124,0.0131,0.0132,0.013,0.0138,0.0136,0.0134,0.0128,0.0133,0.0125,0.0125,0.02,0.0202,0.0352,0.0512,0.0618,0,0,0,0.0126,0.017,0.0132,0.0187,0.0138,0.02,0.0135,0.0163,0.0165,0.0125,0.0201,0.0203,0.035,0.0504,0.061,0.0719,0.0767,0,0,0.0192,0.0177,0.0213,0.0181,0.0279,0.0198,0.0312,0.0271,0.0197,0.0198,0.02,0.036,0.0511,0.0617,0.0851,0.0895,0,0,0,0.0243,0.0275,0.0295,0.0337,0.035,0.042,0.0363,0.0352,0.0352,0.021,0.0362,0.0454,0.0514,0.0561,0.0596,0.0378,0.0214,0.0214,0.0214,0.0342,0.0362,0.0467,0.0506,0.0545,0.0568,0.0622,0.0598,0.047,0.0494,0.0582,0.0784,0.0833,0.0862,0.0633,0.0526,0.0526,0.0527,0.0527,0.0499,0.0594,0.0624,0.074,0.0793,0.0878,0.0901,0.0844,0.0913,0.0755,0.0801,0.0727,0.0911,0.0653,0.0537,0.0536,0.0534,0.0533,0.0533,0.0606,0.0672,0.0729,0.0911,0.1067,0.1109,0.1298,0.1244,0.1128,0.1189,0.1177,0.1174,0.0952,0.1164,0.1166,0.1167,0.1168,0.1169,0.1169,0.0721,0.0787,0.094,0.1109,0.1248,0.1432,0.1543,0.1597,0.1567,0.1449,0.1447,0.1019,0.098,0.0961,0.1188,0.1185,0.1182,0.1181,0.1179,0.0915,0.0921,0.114,0.1285,0.1587,0.1821,0.19,0.2015,0.2011,0.2009,0.146,0.1556,0.1533,0.1501,0.1495,0.1848,0.1848,0.1848,0.1848,0.104,0.106,0.133,0.1551,0.1829,0.2001,0.2305,0.2367,0.2046,0.1821,0.1608,0.1417,0.14,0.1352,0.1325,0.1306,0.1604,0.1603,0.1602,0.1197,0.1241,0.1446,0.1621,0.1926,0.2188,0.2478,0.2616,0.2068,0.156,0.1288,0.1299,0.0972,0.0963,0.0838,0.0816,0.0767,0,0]}],[{"header":{"parameterUnit":"m.s-1","parameterCategory":2,"la1":30.2992,"la2":30.254,"lo1":-89.0895,"lo2":-89.0443,"dy":0.0025,"dx":0.0025,"nx":19,"ny":19,"refTime":"2026-05-20T21:00:00:Z","depth":"2","parameterNumber":2,"parameterNumberName":"U-component_of_CURRENTS"},"data":[0,0,0,0.2795,0.2798,0.2932,0.2933,0.3109,0.311,0,0,0,0,0,0,0,0,0,0,0,0.2752,0.2753,0.2795,0.2798,0.2932,0.2933,0.3108,0.311,0,0,0,0,0,0,0,0,0,0,0,0.2752,0.2753,0.2754,0.2799,0.2932,0.2933,0.3108,0.3005,0,0,0,0,0,0,0,0,0,0,0.2874,0.2817,0.2753,0.2754,0.28,0.2932,0.2933,0.3,0.3012,0.305,0,0.3079,0,0.31,0.3122,0.3123,0,0,0,0.2797,0.2807,0.2862,0.2754,0.2801,0.2932,0.2871,0.3007,0.3019,0.3065,0.3082,0.3088,0.3103,0.3123,0.3124,0.3327,0.3328,0,0,0.2789,0.2758,0.2853,0.287,0.2848,0.2867,0.2875,0.3014,0.3022,0.3082,0.3092,0.3106,0.3125,0.3126,0.3326,0.3327,0,0,0,0.2769,0.2753,0.2804,0.2863,0.2888,0.2871,0.2881,0.3015,0.3039,0.3094,0.3108,0.3126,0.3128,0.3325,0.3327,0.3408,0,0,0,0.2765,0.2742,0.2801,0.2781,0.2886,0.2948,0.2878,0.3029,0.3045,0.3107,0.3126,0.313,0.3324,0.3326,0.3404,0.3499,0,0,0,0.2744,0.2739,0.2762,0.278,0.284,0.2947,0.2977,0.3032,0.3054,0.3123,0.313,0.3324,0.3326,0.34,0.349,0.3625,0,0,0,0.2696,0.2728,0.2762,0.2811,0.2839,0.2971,0.2976,0.3068,0.3131,0.3127,0.3324,0.3326,0.3398,0.3485,0.3619,0.3464,0.3481,0,0,0.2707,0.2728,0.2761,0.2795,0.29,0.2951,0.3078,0.3151,0.3175,0.3276,0.3281,0.3405,0.349,0.3624,0.3584,0.3597,0,0,0,0.2746,0.2773,0.2812,0.2882,0.2981,0.3101,0.3168,0.323,0.3339,0.3222,0.3425,0.3477,0.3559,0.3451,0.3463,0.3336,0.3336,0.3336,0.3336,0.2702,0.2774,0.2857,0.2966,0.3072,0.321,0.3338,0.3438,0.3411,0.3478,0.3555,0.3736,0.3619,0.3627,0.3536,0.3537,0.3537,0.3537,0.3537,0.2753,0.2824,0.2932,0.3044,0.3184,0.3335,0.3546,0.3574,0.377,0.3674,0.3747,0.3556,0.3644,0.3544,0.3543,0.3542,0.3541,0.3541,0.354,0.2742,0.28,0.2875,0.3064,0.3259,0.3437,0.3676,0.3784,0.3902,0.3988,0.3872,0.3867,0.3827,0.4,0.4001,0.4002,0.4003,0.4004,0.4005,0.273,0.2816,0.2936,0.3095,0.3237,0.3472,0.3741,0.3895,0.4006,0.4011,0.4009,0.3895,0.3879,0.3857,0.402,0.4018,0.4016,0.4014,0.4013,0.279,0.2803,0.2972,0.3079,0.3367,0.3455,0.3684,0.3857,0.4033,0.4067,0.4033,0.4027,0.401,0.3996,0.3976,0.4163,0.4163,0.4163,0.4163,0.2809,0.283,0.3054,0.3218,0.3403,0.348,0.3458,0.3455,0.3674,0.371,0.3728,0.351,0.3515,0.3458,0.3456,0.342,0.3463,0.3461,0.346,0.2884,0.2923,0.3061,0.321,0.3403,0.3463,0.3209,0.2885,0.3041,0.3423,0.3517,0.4134,0.3854,0.3846,0.3786,0.3772,0.3726,0,0]},{"header":{"parameterUnit":"m.s-1","parameterCategory":2,"la1":30.2992,"la2":30.254,"lo1":-89.0895,"lo2":-89.0443,"dy":0.0025,"dx":0.0025,"nx":19,"ny":19,"refTime":"2026-05-20T21:00:00:Z","depth":"2","parameterNumber":3,"parameterNumberName":"V-component_of_CURRENTS"},"data":[0,0,0,-0.0005,-0.0005,-0.0009,-0.0009,-0.0048,-0.0049,0,0,0,0,0,0,0,0,0,0,0,-0.0007,-0.0007,-0.0005,-0.0005,-0.0009,-0.0009,-0.0048,-0.0049,0,0,0,0,0,0,0,0,0,0,0,-0.0007,-0.0007,-0.0006,-0.0005,-0.0009,-0.0009,-0.0048,-0.0039,0,0,0,0,0,0,0,0,0,0,-0.0032,-0.0021,-0.0007,-0.0006,-0.0005,-0.0009,-0.0009,-0.0038,-0.004,-0.0054,0,-0.0049,0,-0.0045,-0.0051,-0.0051,0,0,0,-0.0014,-0.002,-0.0022,-0.0006,-0.0005,-0.0009,-0.001,-0.0039,-0.004,-0.0055,-0.0049,-0.005,-0.0046,-0.0051,-0.0052,-0.0002,-0.0001,0,0,-0.0014,-0.0009,-0.0021,-0.0023,0.0001,-0.0009,-0.001,-0.0039,-0.0038,-0.0049,-0.0051,-0.0046,-0.0052,-0.0052,-0.0002,-0.0001,0,0,0,-0.0007,-0.0009,-0.001,-0.0022,-0.0017,-0.0009,-0.001,-0.0037,-0.0037,-0.0051,-0.0047,-0.0052,-0.0052,-0.0003,-0.0002,0.0138,0,0,0,-0.0007,-0.0004,-0.0009,-0.0007,-0.0016,-0.0021,-0.0007,-0.0036,-0.0038,-0.0046,-0.0052,-0.0053,-0.0004,-0.0003,0.0132,0.0245,0,0,0,-0.0008,-0.0004,-0.0003,-0.0006,-0.0004,-0.002,-0.0023,-0.0036,-0.0036,-0.0051,-0.0053,-0.0005,-0.0003,0.0127,0.0234,0.0321,0,0,0,-0.0006,0.003,-0.0002,0.0045,-0.0003,0.0051,-0.0022,-0.0005,-0.001,-0.0052,-0.0004,-0.0002,0.0126,0.0228,0.0314,0.0349,0.0383,0,0,0.0047,0.0036,0.0068,0.004,0.0119,0.005,0.0135,0.0081,0.0014,-0.0001,0.0,0.0134,0.0233,0.032,0.0463,0.0494,0,0,0,0.0092,0.012,0.0137,0.0172,0.0183,0.0223,0.0169,0.0151,0.0136,0.0022,0.0135,0.0195,0.0244,0.025,0.0275,0.0007,0.0007,0.0007,0.0007,0.0173,0.0192,0.0272,0.0303,0.034,0.034,0.037,0.0335,0.0238,0.0252,0.0307,0.0475,0.0482,0.0501,0.0277,0.0278,0.0278,0.0279,0.0279,0.03,0.0359,0.0395,0.0481,0.0509,0.0583,0.0587,0.0533,0.0569,0.0447,0.0485,0.0397,0.0537,0.029,0.0288,0.0286,0.0285,0.0284,0.0284,0.0366,0.0405,0.0457,0.0595,0.0718,0.0755,0.091,0.084,0.0744,0.0783,0.0747,0.0744,0.0582,0.0779,0.078,0.0781,0.0782,0.0782,0.0783,0.042,0.0479,0.0594,0.0724,0.084,0.1005,0.1094,0.1133,0.1066,0.095,0.0948,0.0645,0.0628,0.0611,0.0797,0.0794,0.0792,0.0791,0.079,0.0525,0.0535,0.0703,0.0814,0.1116,0.1317,0.1385,0.1453,0.1423,0.1389,0.1026,0.1016,0.0982,0.0959,0.0949,0.1213,0.1213,0.1213,0.1213,0.0579,0.0599,0.0828,0.1044,0.1305,0.1483,0.1727,0.1672,0.1455,0.1252,0.125,0.1122,0.1104,0.1067,0.1042,0.1028,0.1313,0.1313,0.1313,0.0665,0.0696,0.0873,0.1091,0.1393,0.1682,0.1872,0.1791,0.1404,0.1312,0.1217,0.1229,0.1026,0.1005,0.0927,0.0895,0.0864,0,0]}],[{"header":{"parameterUnit":"m.s-1","parameterCategory":2,"la1":30.2992,"la2":30.254,"lo1":-89.0895,"lo2":-89.0443,"dy":0.0025,"dx":0.0025,"nx":19,"ny":19,"refTime":"2026-05-20T21:00:00:Z","depth":"4","parameterNumber":2,"parameterNumberName":"U-component_of_CURRENTS"},"data":[0,0,0,0.1663,0.1665,0.1801,0.1801,0.1913,0.1914,0,0,0,0,0,0,0,0,0,0,0,0.163,0.1631,0.1662,0.1666,0.1801,0.1801,0.1913,0.1914,0,0,0,0,0,0,0,0,0,0,0,0.1629,0.1631,0.1633,0.1666,0.1801,0.1801,0.1913,0.1826,0,0,0,0,0,0,0,0,0,0,0.1703,0.1679,0.1631,0.1633,0.1667,0.18,0.1801,0.1823,0.1832,0.1834,0,0.1873,0,0.1889,0.192,0.1921,0,0,0,0.1666,0.1672,0.1709,0.1633,0.1668,0.18,0.174,0.1828,0.1838,0.1846,0.1875,0.1879,0.1891,0.1921,0.1921,0.2081,0.2082,0,0,0.1659,0.165,0.1702,0.1715,0.1725,0.1736,0.1744,0.1835,0.1853,0.1875,0.1882,0.1893,0.1921,0.1922,0.208,0.2081,0,0,0,0.1637,0.1644,0.1681,0.1711,0.1737,0.174,0.1749,0.1849,0.1862,0.1883,0.1894,0.1922,0.1923,0.2078,0.208,0.2197,0,0,0,0.1633,0.1632,0.1678,0.1672,0.1736,0.1802,0.1761,0.1856,0.1867,0.1894,0.1922,0.1924,0.2077,0.2079,0.2191,0.2203,0,0,0,0.162,0.1629,0.1652,0.1672,0.1729,0.1801,0.182,0.1859,0.1873,0.1921,0.1924,0.2076,0.2079,0.2186,0.2196,0.2233,0,0,0,0.1594,0.1613,0.1653,0.1684,0.1727,0.1802,0.182,0.1881,0.1924,0.1922,0.2077,0.208,0.2185,0.2191,0.2229,0.1915,0,0,0,0.1588,0.1612,0.1628,0.1666,0.1725,0.1782,0.1884,0.1947,0.1966,0.204,0.2045,0.2193,0.2195,0.2232,0.2068,0,0,0,0,0.1606,0.1625,0.1648,0.1705,0.1767,0.1879,0.1946,0.201,0.2135,0.2005,0.2212,0.2209,0.2229,0.2035,0.2092,0.2092,0.2092,0.2091,0.2091,0.1591,0.1628,0.1669,0.1742,0.1811,0.1956,0.2063,0.2171,0.2183,0.2277,0.2321,0.2445,0.2249,0.2358,0.2359,0.2359,0.236,0.236,0.2361,0.1584,0.1595,0.1694,0.1752,0.189,0.2011,0.2211,0.2291,0.2462,0.2447,0.2462,0.2192,0.2373,0.237,0.2368,0.2367,0.2366,0.2365,0.2365,0.155,0.1553,0.163,0.1741,0.19,0.2075,0.2222,0.2403,0.2537,0.2606,0.2374,0.2507,0.2476,0.2623,0.2624,0.2624,0.2624,0.2624,0.2624,0.1464,0.1527,0.1561,0.1718,0.1798,0.197,0.2259,0.2359,0.2527,0.2444,0.2631,0.2532,0.2524,0.249,0.2629,0.2628,0.2627,0.2627,0.2627,0.1341,0.1385,0.1412,0.1472,0.1645,0.1735,0.2057,0.2224,0.2318,0.2297,0.2347,0.2359,0.2271,0.2268,0.2222,0.2286,0.2283,0.2279,0,0.1228,0.126,0.1219,0.1234,0.1321,0.1543,0.1652,0.1848,0.2017,0.1938,0.2234,0.2278,0.2289,0.2176,0.2168,0.2104,0,0,0,0.1111,0.1114,0.1019,0.1059,0.1119,0.1355,0.1661,0.1679,0.2011,0.2042,0.2189,0.2213,0.2439,0.2641,0.2535,0.2524,0.2464,0,0]},{"header":{"parameterUnit":"m.s-1","parameterCategory":2,"la1":30.2992,"la2":30.254,"lo1":-89.0895,"lo2":-89.0443,"dy":0.0025,"dx":0.0025,"nx":19,"ny":19,"refTime":"2026-05-20T21:00:00:Z","depth":"4","parameterNumber":3,"parameterNumberName":"V-component_of_CURRENTS"},"data":[0,0,0,0.0032,0.0032,0.0029,0.0029,-0.0008,-0.0008,0,0,0,0,0,0,0,0,0,0,0,0.0026,0.0026,0.0032,0.0032,0.0029,0.0029,-0.0008,-0.0008,0,0,0,0,0,0,0,0,0,0,0,0.0026,0.0026,0.0026,0.0032,0.0029,0.0029,-0.0008,0.0,0,0,0,0,0,0,0,0,0,0,0.0006,0.0013,0.0026,0.0026,0.0032,0.0029,0.0029,0.0001,-0.0,-0.0013,0,-0.001,0,-0.0004,-0.001,-0.0011,0,0,0,0.0022,0.0015,0.0013,0.0026,0.0032,0.0029,0.0028,0.0001,-0.0001,-0.0014,-0.0011,-0.0012,-0.0004,-0.0011,-0.0011,-0.0003,-0.0002,0,0,0.0022,0.0025,0.0014,0.0012,0.0034,0.0028,0.0028,0.0,-0.0,-0.0011,-0.0012,-0.0005,-0.0011,-0.0011,-0.0003,-0.0003,0,0,0,0.0029,0.0025,0.0024,0.0013,0.0019,0.0028,0.0028,0.0001,0.0,-0.0013,-0.0005,-0.0011,-0.0011,-0.0003,-0.0003,0.0079,0,0,0,0.0029,0.003,0.0024,0.0026,0.002,0.0016,0.0029,0.0002,-0.0,-0.0005,-0.0011,-0.0012,-0.0004,-0.0003,0.0076,0.0116,0,0,0,0.0026,0.003,0.003,0.0026,0.003,0.0017,0.0015,0.0002,0.0004,-0.0011,-0.0012,-0.0004,-0.0003,0.0074,0.0111,0.0118,0,0,0,0.0027,0.005,0.003,0.0065,0.003,0.0065,0.0015,0.0028,0.0023,-0.0011,-0.0004,-0.0003,0.0073,0.0108,0.0115,0.0174,0,0,0,0.0061,0.0054,0.0078,0.0061,0.0111,0.0064,0.0108,0.0071,0.0027,0.0,0.0,0.0077,0.011,0.0117,0.0221,0,0,0,0,0.0094,0.011,0.0123,0.0145,0.0154,0.016,0.0128,0.0105,0.008,0.0029,0.0071,0.0089,0.0091,0.0117,0.0001,0.0001,0.0001,0.0001,0.0001,0.0135,0.0151,0.0199,0.0218,0.0234,0.0226,0.0223,0.0182,0.0138,0.0134,0.0151,0.0208,0.024,0.0142,0.0143,0.0143,0.0144,0.0144,0.0144,0.0197,0.0227,0.0251,0.0303,0.0309,0.0334,0.031,0.0279,0.0258,0.0213,0.021,0.0197,0.0152,0.015,0.0149,0.0148,0.0148,0.0147,0.0147,0.022,0.0239,0.0274,0.0348,0.0401,0.041,0.046,0.0414,0.0335,0.0342,0.0336,0.0252,0.0249,0.0333,0.0334,0.0334,0.0334,0.0334,0.0334,0.0221,0.0261,0.0329,0.0401,0.0467,0.0537,0.0553,0.0545,0.0468,0.0436,0.0362,0.0271,0.0265,0.0258,0.0338,0.0337,0.0337,0.0336,0.0336,0.0254,0.0272,0.0385,0.046,0.0616,0.0662,0.0682,0.0655,0.0638,0.0581,0.0467,0.0459,0.0427,0.0417,0.0414,0.0543,0.0544,0.0545,0,0.0278,0.0289,0.0468,0.0605,0.0735,0.0756,0.0797,0.0775,0.0647,0.0635,0.0597,0.0469,0.0463,0.0426,0.0418,0.0416,0,0,0,0.0319,0.037,0.0516,0.0652,0.08,0.0816,0.0816,0.0799,0.0667,0.0671,0.0572,0.0565,0.0483,0.0348,0.028,0.0273,0.0258,0,0]}]]